"Sample Date","Sample Time","Sample Value","Units","Flow Rate","Sample Interval","Number Channels","Micron Size 0","Counts/Channel 0","Micron Size 1","Counts/Channel 1","Micron Size 2","Counts/Channel 2","Micron Size 3","Counts/Channel 3","Micron Size 4","Counts/Channel 4","Micron Size 5","Counts/Channel 5","Micron Size 6","Counts/Channel 6","Micron Size 7","Counts/Channel 7","Micron Size 8","Counts/Channel 8","Micron Size 9","Counts/Channel 9","Micron Size 10","Counts/Channel 10","Micron Size 11","Counts/Channel 11","Micron Size 12","Counts/Channel 12","Micron Size 13","Counts/Channel 13","Micron Size 14","Counts/Channel 14","Micron Size 15","Counts/Channel 15","Micron Size 16","Counts/Channel 16","Micron Size 17","Counts/Channel 17","Micron Size 18","Counts/Channel 18","Micron Size 19","Counts/Channel 19","Micron Size 20","Counts/Channel 20","Micron Size 21","Counts/Channel 21","Micron Size 22","Counts/Channel 22","Micron Size 23","Counts/Channel 23","Micron Size 24","Counts/Channel 24","Micron Size 25","Counts/Channel 25","Micron Size 26","Counts/Channel 26","Micron Size 27","Counts/Channel 27","Micron Size 28","Counts/Channel 28","Micron Size 29","Counts/Channel 29","Micron Size 30","Counts/Channel 30","Micron Size 31","Counts/Channel 31"
"03/05/08","06:00:00",51907.000,"cc",28395.543,6.00,6,0.100,44121.000,0.200,4163.000,0.300,1588.000,0.500,1503.000,1.000,532.000,5.000,0
"03/05/08","06:00:06",52538.000,"cc",28309.186,6.00,6,0.100,44214.000,0.200,4271.000,0.300,1757.000,0.500,1733.000,1.000,563.000,5.000,0
"03/05/08","06:00:12",51806.000,"cc",28297.398,6.00,6,0.100,44081.000,0.200,4056.000,0.300,1537.000,0.500,1592.000,1.000,540.000,5.000,0
"03/05/08","06:00:18",51950.000,"cc",28273.777,6.00,6,0.100,44009.000,0.200,4205.000,0.300,1603.000,0.500,1590.000,1.000,543.000,5.000,0
"03/05/08","06:00:24",52319.000,"cc",28339.107,6.00,6,0.100,44096.000,0.200,4254.000,0.300,1702.000,0.500,1682.000,1.000,585.000,5.000,0
"03/05/08","06:00:30",52332.000,"cc",28383.242,6.00,6,0.100,43992.000,0.200,4272.000,0.300,1752.000,0.500,1721.000,1.000,595.000,5.000,0
"03/05/08","06:00:36",50921.000,"cc",28335.721,6.00,6,0.100,43427.000,0.200,3934.000,0.300,1510.000,0.500,1505.000,1.000,545.000,5.000,0
"03/05/08","06:00:42",52965.000,"cc",28309.236,6.00,6,0.100,44060.000,0.200,4429.000,0.300,1976.000,0.500,1830.000,1.000,670.000,5.000,0
"03/05/08","06:00:48",52841.000,"cc",28278.213,6.00,6,0.100,44002.000,0.200,4464.000,0.300,1918.000,0.500,1803.000,1.000,654.000,5.000,0
"03/05/08","06:00:54",54969.000,"cc",28388.629,6.00,6,0.100,44876.000,0.200,4893.000,0.300,2245.000,0.500,2194.000,1.000,761.000,5.000,0
"03/05/08","06:01:00",54967.000,"cc",28228.377,6.00,6,0.100,44934.000,0.200,4866.000,0.300,2232.000,0.500,2179.000,1.000,756.000,5.000,0
"03/05/08","06:01:06",56748.000,"cc",28277.107,6.00,6,0.100,47072.000,0.200,4864.000,0.300,2122.000,0.500,2004.000,1.000,686.000,5.000,0
"03/05/08","06:01:12",54644.000,"cc",28255.623,6.00,6,0.100,45880.000,0.200,4619.000,0.300,1808.000,0.500,1726.000,1.000,611.000,5.000,0
"03/05/08","06:01:18",66998.000,"cc",28289.898,6.00,6,0.100,55407.000,0.200,6260.000,0.300,2353.000,0.500,2206.000,1.000,772.000,5.000,0
"03/05/08","06:01:24",68354.000,"cc",28392.182,6.00,6,0.100,56821.000,0.200,6446.000,0.300,2264.000,0.500,2041.000,1.000,782.000,5.000,0
"03/05/08","06:01:30",61669.000,"cc",28317.516,6.00,6,0.100,51259.000,0.200,5533.000,0.300,2127.000,0.500,2021.000,1.000,729.000,5.000,0
"03/05/08","06:01:36",67047.000,"cc",28312.272,6.00,6,0.100,55232.000,0.200,6375.000,0.300,2409.000,0.500,2204.000,1.000,827.000,5.000,0
"03/05/08","06:01:42",66294.000,"cc",28363.012,6.00,6,0.100,55401.000,0.200,5957.000,0.300,2179.000,0.500,2063.000,1.000,694.000,5.000,0
"03/05/08","06:01:48",62368.000,"cc",28323.250,6.00,6,0.100,52115.000,0.200,5605.000,0.300,2004.000,0.500,1920.000,1.000,724.000,5.000,0
"03/05/08","06:01:54",66281.000,"cc",28286.898,6.00,6,0.100,52194.000,0.200,7049.000,0.300,3164.000,0.500,2831.000,1.000,1043.000,5.000,0
"03/05/08","06:02:00",67736.000,"cc",28352.357,6.00,6,0.100,50023.000,0.200,8238.000,0.300,4453.000,0.500,3662.000,1.000,1360.000,5.000,0
"03/05/08","06:02:06",59381.000,"cc",28309.168,6.00,6,0.100,46876.000,0.200,6024.000,0.300,2949.000,0.500,2590.000,1.000,942.000,5.000,0
"03/05/08","06:02:12",59075.000,"cc",28297.311,6.00,6,0.100,46927.000,0.200,6056.000,0.300,2817.000,0.500,2457.000,1.000,818.000,5.000,0
"03/05/08","06:02:18",51385.000,"cc",28287.484,6.00,6,0.100,43337.000,0.200,4201.000,0.300,1694.000,0.500,1570.000,1.000,583.000,5.000,0
"03/05/08","06:02:24",56793.000,"cc",28285.102,6.00,6,0.100,45707.000,0.200,5563.000,0.300,2629.000,0.500,2187.000,1.000,707.000,5.000,0
"03/05/08","06:02:30",61125.000,"cc",28303.451,6.00,6,0.100,49043.000,0.200,6098.000,0.300,2729.000,0.500,2411.000,1.000,844.000,5.000,0
"03/05/08","06:02:36",59534.000,"cc",28354.940,6.00,6,0.100,49126.000,0.200,5503.000,0.300,2241.000,0.500,1978.000,1.000,686.000,5.000,0
"03/05/08","06:02:42",55912.000,"cc",28325.570,6.00,6,0.100,45650.000,0.200,5165.000,0.300,2216.000,0.500,2181.000,1.000,700.000,5.000,0
"03/05/08","06:02:48",63615.000,"cc",28338.666,6.00,6,0.100,50036.000,0.200,6567.000,0.300,3186.000,0.500,2879.000,1.000,947.000,5.000,0
"03/05/08","06:02:54",73342.000,"cc",28337.283,6.00,6,0.100,58323.000,0.200,7888.000,0.300,3283.000,0.500,2800.000,1.000,1048.000,5.000,0
"03/05/08","06:03:00",75671.000,"cc",28288.457,6.00,6,0.100,62254.000,0.200,7683.000,0.300,2664.000,0.500,2264.000,1.000,806.000,5.000,0
"03/05/08","06:03:06",69758.000,"cc",28345.717,6.00,6,0.100,54441.000,0.200,7573.000,0.300,3527.000,0.500,3123.000,1.000,1094.000,5.000,0
"03/05/08","06:03:12",69103.000,"cc",28324.740,6.00,6,0.100,53818.000,0.200,7583.000,0.300,3520.000,0.500,3096.000,1.000,1086.000,5.000,0
"03/05/08","06:03:18",70584.000,"cc",28333.854,6.00,6,0.100,55469.000,0.200,7568.000,0.300,3417.000,0.500,3051.000,1.000,1079.000,5.000,0
"03/05/08","06:03:24",70019.000,"cc",28275.565,6.00,6,0.100,58562.000,0.200,6517.000,0.300,2244.000,0.500,1982.000,1.000,714.000,5.000,0
"03/05/08","06:03:30",72265.000,"cc",28290.996,6.00,6,0.100,60896.000,0.200,6800.000,0.300,2020.000,0.500,1912.000,1.000,637.000,5.000,0
"03/05/08","06:03:36",67554.000,"cc",28342.455,6.00,6,0.100,57058.000,0.200,6181.000,0.300,1917.000,0.500,1763.000,1.000,635.000,5.000,0
"03/05/08","06:03:42",58448.000,"cc",28307.275,6.00,6,0.100,49560.000,0.200,4856.000,0.300,1713.000,0.500,1696.000,1.000,623.000,5.000,0
"03/05/08","06:03:48",92162.000,"cc",28340.856,6.00,6,0.100,78358.000,0.200,9217.000,0.300,2107.000,0.500,1804.000,1.000,676.000,5.000,0
"03/05/08","06:03:54",92121.000,"cc",28327.293,6.00,6,0.100,79362.000,0.200,8870.000,0.300,1828.000,0.500,1522.000,1.000,539.000,5.000,0
"03/05/08","06:04:00",58619.000,"cc",28288.377,6.00,6,0.100,50151.000,0.200,4850.000,0.300,1563.000,0.500,1499.000,1.000,556.000,5.000,0
"03/05/08","06:04:06",61487.000,"cc",28283.633,6.00,6,0.100,48558.000,0.200,6373.000,0.300,3001.000,0.500,2686.000,1.000,869.000,5.000,0
"03/05/08","06:04:12",66207.000,"cc",28324.195,6.00,6,0.100,52449.000,0.200,6875.000,0.300,3205.000,0.500,2701.000,1.000,977.000,5.000,0
"03/05/08","06:04:18",71933.000,"cc",28297.178,6.00,6,0.100,58293.000,0.200,7318.000,0.300,2874.000,0.500,2539.000,1.000,909.000,5.000,0
"03/05/08","06:04:24",94885.000,"cc",28343.502,6.00,6,0.100,78131.000,0.200,10201.000,0.300,3053.000,0.500,2577.000,1.000,923.000,5.000,0
"03/05/08","06:04:30",68662.000,"cc",28321.479,6.00,6,0.100,51794.000,0.200,7938.000,0.300,4071.000,0.500,3591.000,1.000,1268.000,5.000,0
"03/05/08","06:04:36",62469.000,"cc",28312.607,6.00,6,0.100,50494.000,0.200,5986.000,0.300,2674.000,0.500,2374.000,1.000,941.000,5.000,0
"03/05/08","06:04:42",63549.000,"cc",28391.162,6.00,6,0.100,52249.000,0.200,5985.000,0.300,2273.000,0.500,2224.000,1.000,818.000,5.000,0
"03/05/08","06:04:48",67713.000,"cc",28274.018,6.00,6,0.100,56027.000,0.200,6373.000,0.300,2382.000,0.500,2153.000,1.000,778.000,5.000,0
"03/05/08","06:04:54",73062.000,"cc",28321.322,6.00,6,0.100,61285.000,0.200,6915.000,0.300,2134.000,0.500,1967.000,1.000,761.000,5.000,0
"03/05/08","06:05:00",100493.000,"cc",28300.086,6.00,6,0.100,85599.000,0.200,10031.000,0.300,2266.000,0.500,1903.000,1.000,694.000,5.000,0
"03/05/08","06:05:06",71937.000,"cc",28350.084,6.00,6,0.100,61444.000,0.200,6462.000,0.300,1776.000,0.500,1636.000,1.000,619.000,5.000,0
"03/05/08","06:05:12",65746.000,"cc",28315.971,6.00,6,0.100,56265.000,0.200,5659.000,0.300,1665.000,0.500,1585.000,1.000,572.000,5.000,0
"03/05/08","06:05:18",71943.000,"cc",28281.326,6.00,6,0.100,60806.000,0.200,6610.000,0.300,1941.000,0.500,1921.000,1.000,665.000,5.000,0
"03/05/08","06:05:24",62535.000,"cc",28298.150,6.00,6,0.100,51708.000,0.200,5726.000,0.300,2225.000,0.500,2127.000,1.000,749.000,5.000,0
"03/05/08","06:05:30",64342.000,"cc",28326.190,6.00,6,0.100,52483.000,0.200,5975.000,0.300,2560.000,0.500,2486.000,1.000,838.000,5.000,0
"03/05/08","06:05:36",60852.000,"cc",28351.451,6.00,6,0.100,49554.000,0.200,5544.000,0.300,2448.000,0.500,2392.000,1.000,914.000,5.000,0
"03/05/08","06:05:42",63801.000,"cc",28301.160,6.00,6,0.100,51557.000,0.200,6100.000,0.300,2664.000,0.500,2560.000,1.000,920.000,5.000,0
"03/05/08","06:05:48",65780.000,"cc",28337.283,6.00,6,0.100,49573.000,0.200,7070.000,0.300,3984.000,0.500,3771.000,1.000,1382.000,5.000,0
"03/05/08","06:05:54",69338.000,"cc",28295.361,6.00,6,0.100,50242.000,0.200,8147.000,0.300,4744.000,0.500,4449.000,1.000,1756.000,5.000,0
"03/05/08","06:06:00",63541.000,"cc",28303.604,6.00,6,0.100,49466.000,0.200,6574.000,0.300,3218.000,0.500,3141.000,1.000,1142.000,5.000,0
"03/05/08","06:06:06",60081.000,"cc",28309.041,6.00,6,0.100,49697.000,0.200,5419.000,0.300,2203.000,0.500,2078.000,1.000,684.000,5.000,0
"03/05/08","06:06:12",61052.000,"cc",28326.551,6.00,6,0.100,50945.000,0.200,5366.000,0.300,2098.000,0.500,1945.000,1.000,698.000,5.000,0
"03/05/08","06:06:18",57977.000,"cc",28388.209,6.00,6,0.100,47253.000,0.200,5215.000,0.300,2462.000,0.500,2227.000,1.000,820.000,5.000,0
"03/05/08","06:06:24",65070.000,"cc",28331.377,6.00,6,0.100,51951.000,0.200,6453.000,0.300,2930.000,0.500,2730.000,1.000,1006.000,5.000,0
"03/05/08","06:06:30",60319.000,"cc",28268.008,6.00,6,0.100,48871.000,0.200,5665.000,0.300,2519.000,0.500,2399.000,1.000,865.000,5.000,0
"03/05/08","06:06:36",56082.000,"cc",28276.566,6.00,6,0.100,46018.000,0.200,4911.000,0.300,2213.000,0.500,2171.000,1.000,769.000,5.000,0
"03/05/08","06:06:42",56804.000,"cc",28334.443,6.00,6,0.100,47142.000,0.200,4951.000,0.300,2066.000,0.500,1961.000,1.000,684.000,5.000,0
"03/05/08","06:06:48",56587.000,"cc",28304.848,6.00,6,0.100,47661.000,0.200,4782.000,0.300,1790.000,0.500,1699.000,1.000,655.000,5.000,0
"03/05/08","06:06:54",53902.000,"cc",28347.412,6.00,6,0.100,46116.000,0.200,4311.000,0.300,1475.000,0.500,1483.000,1.000,517.000,5.000,0
"03/05/08","06:07:00",52378.000,"cc",28320.082,6.00,6,0.100,44785.000,0.200,4048.000,0.300,1483.000,0.500,1504.000,1.000,558.000,5.000,0
"03/05/08","06:07:06",51016.000,"cc",28339.076,6.00,6,0.100,43800.000,0.200,3964.000,0.300,1342.000,0.500,1383.000,1.000,527.000,5.000,0
"03/05/08","06:07:12",52356.000,"cc",28312.645,6.00,6,0.100,45229.000,0.200,4010.000,0.300,1279.000,0.500,1351.000,1.000,487.000,5.000,0
"03/05/08","06:07:18",55305.000,"cc",28264.109,6.00,6,0.100,48271.000,0.200,4219.000,0.300,1174.000,0.500,1204.000,1.000,437.000,5.000,0
"03/05/08","06:07:24",58070.000,"cc",28412.252,6.00,6,0.100,50616.000,0.200,4512.000,0.300,1249.000,0.500,1250.000,1.000,443.000,5.000,0
"03/05/08","06:07:30",70634.000,"cc",28297.957,6.00,6,0.100,59208.000,0.200,6641.000,0.300,2185.000,0.500,1900.000,1.000,700.000,5.000,0
"03/05/08","06:07:36",63109.000,"cc",28308.504,6.00,6,0.100,53854.000,0.200,5363.000,0.300,1755.000,0.500,1559.000,1.000,578.000,5.000,0
"03/05/08","06:07:42",59947.000,"cc",28264.139,6.00,6,0.100,51222.000,0.200,5000.000,0.300,1677.000,0.500,1518.000,1.000,530.000,5.000,0
"03/05/08","06:07:48",68249.000,"cc",28332.397,6.00,6,0.100,57551.000,0.200,6384.000,0.300,1980.000,0.500,1698.000,1.000,636.000,5.000,0
"03/05/08","06:07:54",57350.000,"cc",28386.736,6.00,6,0.100,48138.000,0.200,4944.000,0.300,1872.000,0.500,1764.000,1.000,632.000,5.000,0
"03/05/08","06:08:00",59843.000,"cc",28280.150,6.00,6,0.100,50339.000,0.200,5320.000,0.300,1901.000,0.500,1688.000,1.000,595.000,5.000,0
"03/05/08","06:08:06",69815.000,"cc",28277.266,6.00,6,0.100,58710.000,0.200,6386.000,0.300,2005.000,0.500,1987.000,1.000,727.000,5.000,0
"03/05/08","06:08:12",100362.000,"cc",28333.223,6.00,6,0.100,84242.000,0.200,10253.000,0.300,2723.000,0.500,2335.000,1.000,809.000,5.000,0
"03/05/08","06:08:18",101727.000,"cc",28318.281,6.00,6,0.100,85734.000,0.200,10319.000,0.300,2622.000,0.500,2230.000,1.000,822.000,5.000,0
"03/05/08","06:08:24",77797.000,"cc",28346.059,6.00,6,0.100,64894.000,0.200,7590.000,0.300,2359.000,0.500,2138.000,1.000,816.000,5.000,0
"03/05/08","06:08:30",78971.000,"cc",28308.637,6.00,6,0.100,65015.000,0.200,7997.000,0.300,2678.000,0.500,2382.000,1.000,899.000,5.000,0
"03/05/08","06:08:36",57327.000,"cc",28369.481,6.00,6,0.100,47333.000,0.200,5144.000,0.300,2096.000,0.500,2055.000,1.000,699.000,5.000,0
"03/05/08","06:08:42",58669.000,"cc",28342.809,6.00,6,0.100,47956.000,0.200,5413.000,0.300,2324.000,0.500,2153.000,1.000,823.000,5.000,0
"03/05/08","06:08:48",61785.000,"cc",28270.525,6.00,6,0.100,48250.000,0.200,6305.000,0.300,3220.000,0.500,2893.000,1.000,1117.000,5.000,0
"03/05/08","06:08:54",85123.000,"cc",28306.031,6.00,6,0.100,58515.000,0.200,11836.000,0.300,6786.000,0.500,5824.000,1.000,2162.000,5.000,0
"03/05/08","06:09:00",80958.000,"cc",28296.650,6.00,6,0.100,56219.000,0.200,10930.000,0.300,6374.000,0.500,5484.000,1.000,1951.000,5.000,0
"03/05/08","06:09:06",86108.000,"cc",28277.631,6.00,6,0.100,66689.000,0.200,9777.000,0.300,4492.000,0.500,3823.000,1.000,1327.000,5.000,0
"03/05/08","06:09:12",71770.000,"cc",28341.215,6.00,6,0.100,55630.000,0.200,8033.000,0.300,3753.000,0.500,3199.000,1.000,1155.000,5.000,0
"03/05/08","06:09:18",82598.000,"cc",28325.756,6.00,6,0.100,65126.000,0.200,9339.000,0.300,3824.000,0.500,3203.000,1.000,1106.000,5.000,0
"03/05/08","06:09:24",71881.000,"cc",28371.217,6.00,6,0.100,55014.000,0.200,8155.000,0.300,3968.000,0.500,3477.000,1.000,1267.000,5.000,0
"03/05/08","06:09:30",76154.000,"cc",28361.977,6.00,6,0.100,60038.000,0.200,8283.000,0.300,3540.000,0.500,3172.000,1.000,1121.000,5.000,0
"03/05/08","06:09:36",79712.000,"cc",28319.840,6.00,6,0.100,60343.000,0.200,9635.000,0.300,4554.000,0.500,3854.000,1.000,1326.000,5.000,0
"03/05/08","06:09:42",77864.000,"cc",28327.113,6.00,6,0.100,56567.000,0.200,9935.000,0.300,5234.000,0.500,4430.000,1.000,1698.000,5.000,0
"03/05/08","06:09:48",76462.000,"cc",28252.789,6.00,6,0.100,55117.000,0.200,9830.000,0.300,5416.000,0.500,4450.000,1.000,1649.000,5.000,0
"03/05/08","06:09:54",81098.000,"cc",28334.818,6.00,6,0.100,61214.000,0.200,9840.000,0.300,4691.000,0.500,3940.000,1.000,1413.000,5.000,0
"03/05/08","06:10:00",84733.000,"cc",28330.035,6.00,6,0.100,64016.000,0.200,10173.000,0.300,4853.000,0.500,4160.000,1.000,1531.000,5.000,0
"03/05/08","06:10:06",65453.000,"cc",28316.756,6.00,6,0.100,51213.000,0.200,6759.000,0.300,3329.000,0.500,3003.000,1.000,1149.000,5.000,0
"03/05/08","06:10:12",62858.000,"cc",28337.723,6.00,6,0.100,49581.000,0.200,6464.000,0.300,3003.000,0.500,2749.000,1.000,1060.000,5.000,1.000
"03/05/08","06:10:18",60981.000,"cc",28327.203,6.00,6,0.100,48456.000,0.200,5976.000,0.300,2883.000,0.500,2704.000,1.000,962.000,5.000,0
"03/05/08","06:10:24",59195.000,"cc",28288.590,6.00,6,0.100,48410.000,0.200,5391.000,0.300,2365.000,0.500,2221.000,1.000,808.000,5.000,0
"03/05/08","06:10:30",62107.000,"cc",28275.977,6.00,6,0.100,48417.000,0.200,6494.000,0.300,3258.000,0.500,2900.000,1.000,1038.000,5.000,0
"03/05/08","06:10:36",63843.000,"cc",28304.570,6.00,6,0.100,50136.000,0.200,6547.000,0.300,3158.000,0.500,2938.000,1.000,1064.000,5.000,0
"03/05/08","06:10:42",61609.000,"cc",28360.135,6.00,6,0.100,48262.000,0.200,6072.000,0.300,3150.000,0.500,2955.000,1.000,1170.000,5.000,0
"03/05/08","06:10:48",60807.000,"cc",28299.344,6.00,6,0.100,47541.000,0.200,6099.000,0.300,3157.000,0.500,2917.000,1.000,1093.000,5.000,0
"03/05/08","06:10:54",58013.000,"cc",28332.018,6.00,6,0.100,46718.000,0.200,5427.000,0.300,2538.000,0.500,2458.000,1.000,872.000,5.000,0
"03/05/08","06:11:00",54576.000,"cc",28346.244,6.00,6,0.100,45124.000,0.200,4703.000,0.300,2023.000,0.500,1998.000,1.000,728.000,5.000,0
"03/05/08","06:11:06",54648.000,"cc",28398.074,6.00,6,0.100,45379.000,0.200,4717.000,0.300,1927.000,0.500,1912.000,1.000,713.000,5.000,0
"03/05/08","06:11:12",52700.000,"cc",28272.447,6.00,6,0.100,44848.000,0.200,4202.000,0.300,1600.000,0.500,1508.000,1.000,542.000,5.000,0
"03/05/08","06:11:18",55961.000,"cc",28303.100,6.00,6,0.100,46893.000,0.200,4679.000,0.300,1857.000,0.500,1896.000,1.000,636.000,5.000,0
"03/05/08","06:11:24",56727.000,"cc",28339.320,6.00,6,0.100,46838.000,0.200,4969.000,0.300,2162.000,0.500,2019.000,1.000,739.000,5.000,0
"03/05/08","06:11:30",56812.000,"cc",28330.867,6.00,6,0.100,47296.000,0.200,4919.000,0.300,1974.000,0.500,1956.000,1.000,667.000,5.000,0
"03/05/08","06:11:36",54683.000,"cc",28313.650,6.00,6,0.100,45944.000,0.200,4589.000,0.300,1810.000,0.500,1724.000,1.000,616.000,5.000,0
"03/05/08","06:11:42",55142.000,"cc",28337.865,6.00,6,0.100,45837.000,0.200,4759.000,0.300,1942.000,0.500,1904.000,1.000,700.000,5.000,0
"03/05/08","06:11:48",55005.000,"cc",28360.883,6.00,6,0.100,46079.000,0.200,4604.000,0.300,1862.000,0.500,1824.000,1.000,636.000,5.000,0
"03/05/08","06:11:54",53183.000,"cc",28328.393,6.00,6,0.100,45061.000,0.200,4236.000,0.300,1641.000,0.500,1651.000,1.000,594.000,5.000,0
"03/05/08","06:12:00",53270.000,"cc",28288.051,6.00,6,0.100,45581.000,0.200,4234.000,0.300,1489.000,0.500,1433.000,1.000,533.000,5.000,0
"03/05/08","06:12:06",55196.000,"cc",28283.201,6.00,6,0.100,47164.000,0.200,4304.000,0.300,1610.000,0.500,1545.000,1.000,573.000,5.000,0
"03/05/08","06:12:12",54141.000,"cc",28246.404,6.00,6,0.100,46175.000,0.200,4224.000,0.300,1597.000,0.500,1619.000,1.000,526.000,5.000,0
"03/05/08","06:12:18",57093.000,"cc",28333.699,6.00,6,0.100,48521.000,0.200,4598.000,0.300,1692.000,0.500,1691.000,1.000,591.000,5.000,0
"03/05/08","06:12:24",55914.000,"cc",28277.318,6.00,6,0.100,47451.000,0.200,4571.000,0.300,1669.000,0.500,1630.000,1.000,593.000,5.000,0
"03/05/08","06:12:30",57222.000,"cc",28336.363,6.00,6,0.100,48472.000,0.200,4833.000,0.300,1658.000,0.500,1631.000,1.000,628.000,5.000,0
"03/05/08","06:12:36",55904.000,"cc",28346.836,6.00,6,0.100,47227.000,0.200,4571.000,0.300,1775.000,0.500,1697.000,1.000,634.000,5.000,0
"03/05/08","06:12:42",66346.000,"cc",28369.994,6.00,6,0.100,55618.000,0.200,5974.000,0.300,2187.000,0.500,1847.000,1.000,720.000,5.000,0
"03/05/08","06:12:48",68935.000,"cc",28306.553,6.00,6,0.100,57777.000,0.200,6233.000,0.300,2144.000,0.500,2025.000,1.000,756.000,5.000,0
"03/05/08","06:12:54",64104.000,"cc",28307.273,6.00,6,0.100,53016.000,0.200,5772.000,0.300,2297.000,0.500,2211.000,1.000,808.000,5.000,0
"03/05/08","06:13:00",75484.000,"cc",28282.207,6.00,6,0.100,61435.000,0.200,7453.000,0.300,2907.000,0.500,2707.000,1.000,982.000,5.000,0
"03/05/08","06:13:06",74617.000,"cc",28313.133,6.00,6,0.100,61977.000,0.200,7207.000,0.300,2403.000,0.500,2251.000,1.000,779.000,5.000,0
"03/05/08","06:13:12",63697.000,"cc",28259.834,6.00,6,0.100,51866.000,0.200,5951.000,0.300,2555.000,0.500,2413.000,1.000,912.000,5.000,0
"03/05/08","06:13:18",66537.000,"cc",28375.652,6.00,6,0.100,52971.000,0.200,6736.000,0.300,2921.000,0.500,2883.000,1.000,1026.000,5.000,0
"03/05/08","06:13:24",57269.000,"cc",28336.893,6.00,6,0.100,48265.000,0.200,4736.000,0.300,1824.000,0.500,1817.000,1.000,627.000,5.000,0
"03/05/08","06:13:30",72812.000,"cc",28284.648,6.00,6,0.100,60918.000,0.200,6812.000,0.300,2225.000,0.500,2095.000,1.000,762.000,5.000,0
"03/05/08","06:13:36",68762.000,"cc",28292.031,6.00,6,0.100,55681.000,0.200,6722.000,0.300,2837.000,0.500,2594.000,1.000,928.000,5.000,0
"03/05/08","06:13:42",63822.000,"cc",28359.961,6.00,6,0.100,50355.000,0.200,6505.000,0.300,3022.000,0.500,2912.000,1.000,1028.000,5.000,0
"03/05/08","06:13:48",80740.000,"cc",28315.527,6.00,6,0.100,64903.000,0.200,8590.000,0.300,3311.000,0.500,2868.000,1.000,1068.000,5.000,0
"03/05/08","06:13:54",77057.000,"cc",28320.096,6.00,6,0.100,62853.000,0.200,7869.000,0.300,2813.000,0.500,2600.000,1.000,922.000,5.000,0
"03/05/08","06:14:00",77699.000,"cc",28306.801,6.00,6,0.100,62259.000,0.200,8212.000,0.300,3184.000,0.500,2971.000,1.000,1073.000,5.000,0
"03/05/08","06:14:06",64838.000,"cc",28292.283,6.00,6,0.100,51781.000,0.200,6418.000,0.300,2961.000,0.500,2651.000,1.000,1027.000,5.000,0
"03/05/08","06:14:12",69510.000,"cc",28296.365,6.00,6,0.100,56824.000,0.200,6844.000,0.300,2544.000,0.500,2364.000,1.000,934.000,5.000,0
"03/05/08","06:14:18",68607.000,"cc",28336.065,6.00,6,0.100,56417.000,0.200,6438.000,0.300,2526.000,0.500,2389.000,1.000,837.000,5.000,0
"03/05/08","06:14:24",66178.000,"cc",28358.408,6.00,6,0.100,55216.000,0.200,6122.000,0.300,2063.000,0.500,2073.000,1.000,704.000,5.000,0
"03/05/08","06:14:30",59293.000,"cc",28366.988,6.00,6,0.100,50020.000,0.200,5076.000,0.300,1773.000,0.500,1747.000,1.000,677.000,5.000,0
"03/05/08","06:14:36",61918.000,"cc",28325.957,6.00,6,0.100,51484.000,0.200,5513.000,0.300,2145.000,0.500,2025.000,1.000,751.000,5.000,0
"03/05/08","06:14:42",67715.000,"cc",28312.998,6.00,6,0.100,56862.000,0.200,6219.000,0.300,2039.000,0.500,1881.000,1.000,714.000,5.000,0
"03/05/08","06:14:48",88604.000,"cc",28221.512,6.00,6,0.100,75686.000,0.200,8473.000,0.300,1957.000,0.500,1816.000,1.000,672.000,5.000,0
"03/05/08","06:14:54",87101.000,"cc",28394.283,6.00,6,0.100,75294.000,0.200,7969.000,0.300,1772.000,0.500,1548.000,1.000,518.000,5.000,0
"03/05/08","06:15:00",108260.000,"cc",28319.977,6.00,6,0.100,93881.000,0.200,10601.000,0.300,1818.000,0.500,1477.000,1.000,483.000,5.000,0
"03/05/08","06:15:06",146727.000,"cc",28296.209,6.00,6,0.100,126611.000,0.200,15892.000,0.300,2134.000,0.500,1550.000,1.000,540.000,5.000,0
"03/05/08","06:15:12",162500.000,"cc",28357.666,6.00,6,0.100,140212.000,0.200,17659.000,0.300,2476.000,0.500,1582.000,1.000,571.000,5.000,0
"03/05/08","06:15:18",121388.000,"cc",28306.531,6.00,6,0.100,104587.000,0.200,12421.000,0.300,2071.000,0.500,1716.000,1.000,593.000,5.000,0
"03/05/08","06:15:24",155754.000,"cc",28258.842,6.00,6,0.100,133915.000,0.200,17276.000,0.300,2323.000,0.500,1688.000,1.000,552.000,5.000,0
"03/05/08","06:15:30",140093.000,"cc",28343.789,6.00,6,0.100,121184.000,0.200,14785.000,0.300,2035.000,0.500,1598.000,1.000,491.000,5.000,0
"03/05/08","06:15:36",177256.000,"cc",28280.125,6.00,6,0.100,152508.000,0.200,19846.000,0.300,2492.000,0.500,1766.000,1.000,644.000,5.000,0
"03/05/08","06:15:42",196725.000,"cc",28312.371,6.00,6,0.100,168727.000,0.200,22886.000,0.300,2713.000,0.500,1772.000,1.000,627.000,5.000,0
"03/05/08","06:15:48",157470.000,"cc",28284.598,6.00,6,0.100,135466.000,0.200,17152.000,0.300,2412.000,0.500,1788.000,1.000,652.000,5.000,0
"03/05/08","06:15:54",76212.000,"cc",28375.400,6.00,6,0.100,65130.000,0.200,6803.000,0.300,1908.000,0.500,1742.000,1.000,629.000,5.000,0
"03/05/08","06:16:00",86251.000,"cc",28346.746,6.00,6,0.100,74225.000,0.200,7996.000,0.300,1820.000,0.500,1595.000,1.000,615.000,5.000,0
"03/05/08","06:16:06",95027.000,"cc",28339.156,6.00,6,0.100,82191.000,0.200,9053.000,0.300,1718.000,0.500,1503.000,1.000,562.000,5.000,0
"03/05/08","06:16:12",59829.000,"cc",28335.602,6.00,6,0.100,52157.000,0.200,4673.000,0.300,1332.000,0.500,1206.000,1.000,461.000,5.000,0
"03/05/08","06:16:18",81299.000,"cc",28322.002,6.00,6,0.100,70002.000,0.200,7500.000,0.300,1705.000,0.500,1542.000,1.000,550.000,5.000,0